Weather History for KMYL - May, 2013

Change the Weather History Date:

Wednesday, May 1, 2013

  Actual Average Record
Temperature  
Mean Temperature 35 °F 42 °F  
Max Temperature 50 °F 54 °F 76 °F (1981)
Min Temperature 20 °F 29 °F 15 °F (1972)
Degree Days  
Heating Degree Days 30 23  
Month to date heating degree days 30 23  
Since 1 July heating degree days 7921 8658  
Cooling Degree Days 0 0  
Month to date cooling degree days 0 0  
Year to date cooling degree days 0 0  
Moisture  
Dew Point 14 °F    
Average Humidity 48    
Maximum Humidity 77    
Minimum Humidity 18    
Precipitation  
Precipitation 0.00 in 0.06 in 0.45 in (2001)
Month to date precipitation 0.00 0.06  
Year to date precipitation 7.62 7.65  
Sea Level Pressure  
Sea Level Pressure 30.49 in    
Wind  
Wind Speed 6 mph (NNW)    
Max Wind Speed 15 mph    
Max Gust Speed 17 mph    
Visibility 10 miles    
Events      
T = Trace of Precipitation, MM = Missing Value Source: NWS Daily Summary

Daily Weather History Graph

Daily Weather History Graph

Search for Another Location

Airport or City:

Trip Planner

Search our weather history database for the weather conditions in past years. The results will help you decide how hot, cold, wet, or windy it might be!

Date:

Astronomy

May. 01, 2013 Rise Set
Actual Time 6:33 AM MDT 8:50 PM MDT
Civil Twilight 6:01 AM MDT 9:22 PM MDT
Nautical Twilight 5:21 AM MDT 10:02 PM MDT
Astronomical Twilight 4:36 AM MDT 10:48 PM MDT
Moon 2:03 AM MDT (5/1) 12:17 PM MDT (5/1)
Length of Visible Light 15h 21m
Length of Day
14h 16m
Waning Gibbous, 58% of the Moon is Illuminated
May 1
Waning Gibbous
May 2
Last Quarter
May 9
New
May 17
First Quarter
May 24
Full

Hourly Weather History & Observations

Time (MDT) Temp. Windchill Dew Point Humidity Pressure Visibility Wind Dir Wind Speed Gust Speed Precip Events Conditions
12:51 AM 28.0 °F - 15.1 °F 58% 30.33 in 10.0 mi Calm Calm - N/A   Scattered Clouds
1:51 AM 27.0 °F 23.0 °F 15.1 °F 61% 30.34 in 10.0 mi West 3.5 mph - N/A   Mostly Cloudy
2:51 AM 27.0 °F 23.0 °F 16.0 °F 63% 30.35 in 10.0 mi NNW 3.5 mph - N/A   Clear
3:51 AM 21.9 °F - 15.1 °F 75% 30.39 in 10.0 mi Calm Calm - N/A   Clear
4:51 AM 24.1 °F 17.0 °F 15.1 °F 69% 30.39 in 10.0 mi NW 5.8 mph - N/A   Clear
5:51 AM 23.0 °F 18.4 °F 15.1 °F 72% 30.43 in 10.0 mi Variable 3.5 mph - N/A   Clear
6:51 AM 24.1 °F 19.7 °F 15.1 °F 69% 30.45 in 10.0 mi NNW 3.5 mph - N/A   Clear
7:51 AM 28.9 °F - 17.1 °F 61% 30.46 in 10.0 mi Calm Calm - N/A   Clear
8:51 AM 32.0 °F - 14.0 °F 48% 30.48 in 10.0 mi Calm Calm - N/A   Clear
9:51 AM 34.0 °F 28.8 °F 10.9 °F 38% 30.50 in 10.0 mi NW 5.8 mph - N/A   Clear
10:51 AM 37.9 °F 30.5 °F 10.9 °F 33% 30.51 in 10.0 mi NNW 11.5 mph - N/A   Clear
11:51 AM 39.0 °F 33.4 °F 10.9 °F 32% 30.53 in 10.0 mi NW 8.1 mph - N/A   Clear
12:51 PM 41.0 °F 35.8 °F 12.0 °F 31% 30.52 in 10.0 mi NW 8.1 mph - N/A   Clear
1:51 PM 43.0 °F 37.7 °F 9.0 °F 25% 30.51 in 10.0 mi NNW 9.2 mph - N/A   Clear
2:51 PM 46.0 °F 41.4 °F 9.0 °F 22% 30.51 in 10.0 mi North 9.2 mph - N/A   Clear
3:51 PM 48.0 °F - 8.1 °F 20% 30.52 in 10.0 mi NNW 9.2 mph - N/A   Clear
4:51 PM 48.9 °F - 7.0 °F 18% 30.51 in 10.0 mi North 9.2 mph - N/A   Clear
5:51 PM 48.9 °F - 14.0 °F 25% 30.53 in 10.0 mi NW 9.2 mph - N/A   Clear
6:51 PM 48.0 °F - 12.9 °F 24% 30.54 in 10.0 mi NNW 8.1 mph - N/A   Clear
7:51 PM 46.0 °F 41.0 °F 16.0 °F 30% 30.54 in 10.0 mi West 10.4 mph - N/A   Clear
8:51 PM 42.1 °F 39.2 °F 17.1 °F 37% 30.56 in 10.0 mi WNW 4.6 mph - N/A   Clear
9:51 PM 39.9 °F 35.1 °F 17.1 °F 40% 30.58 in 10.0 mi NNW 6.9 mph - N/A   Clear
10:51 PM 37.9 °F 32.7 °F 19.0 °F 47% 30.59 in 10.0 mi North 6.9 mph - N/A   Clear
11:51 PM 36.0 °F 31.1 °F 19.0 °F 50% 30.60 in 10.0 mi North 5.8 mph - N/A   Clear